Back to catalog

NOAA 16 DEB

AliveSSO
NORAD 41665·DEBRIS·🇺🇸 United States

Launched Sep 21, 2000 from Vandenberg Space Force Base

Loading…

Next Passes (next 24 hours)

TLE

AgingSource: Space-Track

Epoch: Sep 10, 2026, 04:44 UTC

1 41665U 00055PE  26253.19739955  .00000517  00000-0  31653-3 0  9992
2 41665  98.6634 238.7402 0039493 317.9509  41.8633 14.09731296533163

Track NOAA 16 DEB in real time with AllMySat

Download on the App Store